Location: Newark
(58.8333°N, 23.5833°E)
Time: 15:07:44
(UTC+00:00)

Vanguard 2 - Pass Details

Date: 28 November 2019
Orbit: 553 x 2938 km, 32.9° (Epoch: 10 December)

Event Time Altitude Azimuth Distance (km) Brightness Sun altitude
Rises 04:39:02 0° 225° (SW) 6,531 12.0 -14.9°
Reaches altitude 10° 04:45:51 10° 209° (SSW) 5,165 11.6 -14.0°
Maximum altitude 04:53:32 17° 177° (S) 4,068 11.5 -13.1°
Drops below altitude 10° 04:59:46 10° 142° (SE) 4,044 12.2 -12.3°
Sets 05:04:02 0° 123° (ESE) 4,594 13.4 -11.8°
